Hourly Weather Roundup
Issued by NWS Central Illinois

Home | Current Version | Previous Version | Text Only | Print | Product List | Glossary On
Versions: 1 2 3 4 5 6 7 8 9 10 11 12 13 14 15 16 17 18 19 20 21 22 23 24 25 26 27 28 29 30 31 32 33 34 35 36 37 38 39 40 41 42 43 44 45 46 47 48 49 50
000
NZUS43 KILX 181310
HWRILX

AREA WEATHER ROUNDUP
NATIONAL WEATHER SERVICE, LINCOLN IL
700 AM CST SAT FEB 18 2017


CITY           SKY/WX    TMP DP  RH WIND       PRES   REMARKS
BLOOMINGTON    CLEAR     45  35  68 SW10      29.76R
CHAMPAIGN      PTCLDY    44  36  73 SW10      29.77R
DANVILLE       CLOUDY    43  37  78 SW5       29.75R
DECATUR        PTCLDY    45  36  70 SW8       29.78R
EFFINGHAM      CLOUDY    51  41  67 SE5       29.84R
FLORA          CLOUDY    49  43  79 S7        29.84R
GALESBURG      CLEAR     36  33  88 CALM        N/A
JACKSONVILLE   CLOUDY    48  34  59 SW8       29.76S
LACON          CLEAR     42  33  69 S3        29.73R
LAWRENCEVILLE  CLOUDY    46  38  73 S8        29.85R
LITCHFIELD     CLOUDY    46  39  76 S7        29.80R
$$


CITY           SKY/WX    TMP DP  RH WIND       PRES   REMARKS
LINCOLN        PTCLDY    44  36  73 CALM      29.76R
MACOMB         CLOUDY    43  35  72 SW8       29.77R
MATTOON        MOCLDY    48  39  71 S7        29.78S
MT CARMEL AP   CLOUDY    51  40  67 S9        29.85R
OLNEY-NOBLE AP CLOUDY    48  45  87 S5        29.85R
PARIS          MOCLDY    46  39  78 SW12      29.80S
PEORIA         CLEAR     41  33  73 CALM      29.75R
PONTIAC        CLEAR     43  37  77 W8        29.74R
RANTOUL        CLOUDY    45  39  81 SW6       29.76S
SPRINGFIELD    CLEAR     46  34  62 SW6       29.76S
TAYLORVILLE    CLOUDY    45  37  71 CALM      29.78S
$$

...REGIONAL REPORTS...


CITY           SKY/WX    TMP DP  RH WIND       PRES   REMARKS
CHICAGO O`HARE CLOUDY    44  33  65 W6        29.69R
KANKAKEE       CLOUDY    42  36  76 CALM      29.74R
MOLINE         CLEAR     37  31  78 S3        29.72R
MOUNT STERLING CLOUDY    49  36  60 W8        29.75R
MOUNT VERNON   CLOUDY    52  44  74 SW10      29.85R
PITTSFIELD     PTCLDY    53  38  56 W8        29.77R
QUINCY         PTCLDY    44  35  70 SW8       29.75S
ROCKFORD       CLEAR     36  31  82 S7        29.70R WCI  30
$$


CITY           SKY/WX    TMP DP  RH WIND       PRES   REMARKS
BURLINGTON     CLEAR     44  36  73 W5        29.73R
CEDAR RAPIDS   CLOUDY    32  32 100 NW7       29.72R WCI  26
DES MOINES     CLOUDY    36  32  85 W3        29.77R
KIRKSVILLE     CLEAR     43  35  73 W6        29.76R
OTTUMWA        CLOUDY    34  30  85 W7        29.75R WCI  28
ST LOUIS       CLOUDY    57  39  51 SW9G21    29.82R
$$


CITY           SKY/WX    TMP DP  RH WIND       PRES   REMARKS
TERRE HAUTE    CLOUDY    48  37  65 SW5       29.82R
EVANSVILLE     CLOUDY    50  39  66 SW6       29.88R
INDIANAPOLIS   MOCLDY    47  36  65 SW6       29.81R
LAFAYETTE      CLOUDY    46  38  73 SW5       29.77R
MADISON        PTCLDY    37  34  89 S3        29.65R
MILWAUKEE      PTCLDY    45  34  65 SW6       29.66R
$$






USA.gov is the U.S. government's official web portal to all federal, state and local government web resources and services.